Location: Bay Shore Mobile Home Park
(38.5762°N, 75.0841°W)
Time: 00:57:14
(UTC+00:00)

ARIANE 6 FM1 Upper Stage - Visible Passes

Search period start: 25 May 2025 00:00
Search period end: 04 June 2025 00:00
Orbit: 533 x 609 km, 62.0° (Epoch: 24 May)

Date Brightness Start Highest point End Pass type
(mag) Time Alt. Az. Time Alt. Az. Time Alt. Az.
25 May 6.0 01:15:55 10° WNW 01:17:50 13° NW 01:19:46 10° N visible
25 May 3.2 07:58:07 10° NNW 08:02:15 61° NE 08:06:29 10° SE visible
26 May 5.9 06:22:26 10° N 06:24:26 13° NE 06:26:26 10° ENE visible
26 May 2.6 07:59:53 10° NW 08:04:05 84° SW 08:08:21 10° SSE visible
27 May 5.4 06:23:32 10° N 06:26:27 18° NE 06:29:23 10° E visible
27 May 2.8 08:01:46 10° NW 08:05:50 52° WSW 08:09:59 10° SSE visible
28 May 4.8 06:24:54 10° NNW 06:28:24 26° NE 06:31:58 10° ESE visible
28 May 3.4 08:03:48 10° NW 08:07:33 32° WSW 08:09:16 23° SSW visible
29 May 4.0 06:26:25 10° NNW 06:30:19 37° NE 06:32:09 25° E visible
29 May 4.2 08:06:04 10° WNW 08:08:08 19° W 08:08:08 19° W visible
30 May 3.2 06:28:02 10° NNW 06:32:07 58° NE 06:32:07 58° NE visible
31 May 5.6 04:52:26 10° NNE 04:54:17 13° NE 04:56:07 10° ENE visible
31 May 3.6 06:29:46 10° NW 06:32:36 43° NW 06:32:36 43° NW visible
01 Jun 5.1 04:53:27 10° N 04:56:16 17° NE 04:57:20 16° ENE visible
01 Jun 4.4 06:31:36 10° NW 06:33:23 24° NW 06:33:23 24° NW visible
02 Jun 4.6 04:54:47 10° N 04:58:13 25° NE 04:58:16 24° NE visible
02 Jun 5.0 06:33:36 10° NW 06:34:21 14° WNW 06:34:21 14° WNW visible
03 Jun 4.2 04:56:15 10° NNW 04:59:21 33° NNE 04:59:21 33° NNE visible
